| time (UTC) | temp F | wind direction | speed knots | gust knots | rain 1hr in | rain 24hr in | rain mn in | humidity % | barometer mb |
| 20260504021510 | 50 | 146 | 0.0 | 0.0 | 0.00 | 0.00 | 0.00 | 64 | 1009.4 |
| 20260504020011 | 50 | 145 | 0.0 | 0.0 | 0.00 | 0.00 | 0.00 | 63 | 1009.5 |
| 20260504015511 | 50 | 146 | 0.0 | 0.0 | 0.00 | 0.00 | 0.00 | 62 | 1009.5 |
| 20260504014510 | 50 | 146 | 0.0 | 0.0 | 0.00 | 0.00 | 0.00 | 61 | 1009.5 |
| 20260504014012 | 50 | 145 | 1.7 | 0.0 | 0.00 | 0.00 | 0.00 | 61 | 1009.4 |
| 20260504013511 | 50 | 146 | 0.0 | 0.0 | 0.00 | 0.00 | 0.00 | 61 | 1009.4 |
| 20260504013011 | 51 | 145 | 0.0 | 0.0 | 0.00 | 0.00 | 0.00 | 60 | 1009.4 |
| 20260504012511 | 51 | 145 | 0.0 | 0.0 | 0.00 | 0.00 | 0.00 | 58 | 1009.4 |
| 20260504012011 | 51 | 148 | 1.7 | 0.0 | 0.00 | 0.00 | 0.00 | 58 | 1009.4 |
| 20260504011511 | 52 | 149 | 0.0 | 0.0 | 0.00 | 0.00 | 0.00 | 57 | 1009.4 |
| 20260504011010 | 52 | 148 | 1.7 | 0.0 | 0.00 | 0.00 | 0.00 | 56 | 1009.5 |
| 20260504010510 | 52 | 197 | 0.0 | 0.0 | 0.00 | 0.00 | 0.00 | 55 | 1009.5 |
| 20260504005510 | 53 | 198 | 0.0 | 0.0 | 0.00 | 0.00 | 0.00 | 53 | 1009.2 |
| 20260504005010 | 53 | 198 | 0.0 | 0.0 | 0.00 | 0.00 | 0.00 | 52 | 1009.2 |
| 20260504004512 | 54 | 197 | 0.0 | 0.0 | 0.00 | 0.00 | 0.00 | 51 | 1009.2 |
| 20260504004010 | 54 | 197 | 0.0 | 0.0 | 0.00 | 0.00 | 0.00 | 51 | 1009.4 |
| 20260504003511 | 54 | 197 | 0.0 | 0.0 | 0.00 | 0.00 | 0.00 | 50 | 1009.4 |
| 20260504003010 | 55 | 197 | 0.0 | 0.0 | 0.00 | 0.00 | 0.00 | 48 | 1009.4 |
| 20260504002510 | 55 | 198 | 0.0 | 0.0 | 0.00 | 0.00 | 0.00 | 49 | 1009.2 |
| 20260504002010 | 56 | 197 | 0.0 | 0.0 | 0.00 | 0.00 | 0.00 | 50 | 1009.2 |
| 20260504001011 | 57 | 197 | 0.0 | 0.0 | 0.00 | 0.00 | 0.00 | 41 | 1009.2 |
| 20260504000510 | 58 | 195 | 0.0 | 0.0 | 0.00 | 0.00 | 0.00 | 40 | 1009.2 |
| 20260504000010 | 59 | 195 | 0.0 | 0.0 | 0.00 | 0.00 | 0.00 | 38 | 1009.2 |
| 20260503235510 | 59 | 195 | 0.0 | 0.0 | 0.00 | 0.00 | 0.00 | 35 | 1009.2 |
| 20260503235010 | 59 | 302 | 0.0 | 0.0 | 0.00 | 0.00 | 0.00 | 34 | 1009.2 |
| 20260503234510 | 60 | 336 | 0.0 | 0.0 | 0.00 | 0.00 | 0.00 | 36 | 1009.2 |
| 20260503233510 | 60 | 336 | 0.0 | 0.0 | 0.00 | 0.00 | 0.00 | 38 | 1009.4 |
| 20260503233011 | 61 | 336 | 0.0 | 0.0 | 0.00 | 0.00 | 0.00 | 37 | 1009.4 |
| 20260503232512 | 61 | 282 | 0.0 | 0.0 | 0.00 | 0.00 | 0.00 | 34 | 1009.5 |
| 20260503232012 | 61 | 269 | 0.0 | 0.0 | 0.00 | 0.00 | 0.00 | 32 | 1009.5 |
| 20260503231010 | 62 | 269 | 0.0 | 0.0 | 0.00 | 0.00 | 0.00 | 32 | 1009.7 |
| 20260503230512 | 62 | 328 | 0.0 | 0.0 | 0.00 | 0.00 | 0.00 | 31 | 1009.7 |
| 20260503230010 | 62 | 327 | 0.0 | 0.0 | 0.00 | 0.00 | 0.00 | 35 | 1009.7 |
| 20260503225510 | 62 | 327 | 0.0 | 0.0 | 0.00 | 0.00 | 0.00 | 33 | 1009.8 |
| 20260503225012 | 62 | 328 | 0.0 | 0.0 | 0.00 | 0.00 | 0.00 | 31 | 1009.8 |
| 20260503224510 | 62 | 328 | 0.0 | 0.0 | 0.00 | 0.00 | 0.00 | 31 | 1009.8 |
| 20260503223510 | 62 | 328 | 0.0 | 0.0 | 0.00 | 0.00 | 0.00 | 30 | 1009.7 |
| 20260503223010 | 62 | 297 | 0.0 | 0.0 | 0.00 | 0.00 | 0.00 | 31 | 1009.7 |
| 20260503222510 | 62 | 11 | 0.0 | 0.0 | 0.00 | 0.00 | 0.00 | 31 | 1009.8 |
| 20260503222010 | 62 | 12 | 0.0 | 0.0 | 0.00 | 0.00 | 0.00 | 30 | 1009.8 |
| 20260503221510 | 62 | 296 | 0.0 | 0.0 | 0.00 | 0.00 | 0.00 | 31 | 1009.8 |
| 20260503221011 | 62 | 297 | 0.0 | 0.0 | 0.00 | 0.00 | 0.00 | 32 | 1010.0 |
| 20260503220011 | 62 | 192 | 1.7 | 0.0 | 0.00 | 0.00 | 0.00 | 30 | 1010.0 |
| 20260503215511 | 62 | 145 | 0.0 | 0.0 | 0.00 | 0.00 | 0.00 | 29 | 1010.1 |
| 20260503215011 | 62 | 131 | 0.0 | 0.0 | 0.00 | 0.00 | 0.00 | 31 | 1010.1 |
| 20260503214511 | 62 | 194 | 0.0 | 0.0 | 0.00 | 0.00 | 0.00 | 29 | 1010.1 |
| 20260503214011 | 62 | 201 | 0.0 | 0.0 | 0.00 | 0.00 | 0.00 | 29 | 1010.1 |
| 20260503213511 | 62 | 213 | 3.5 | 0.0 | 0.00 | 0.00 | 0.00 | 29 | 1010.1 |
| 20260503213011 | 62 | 173 | 0.9 | 0.0 | 0.00 | 0.00 | 0.00 | 29 | 1010.1 |
| 20260503212511 | 62 | 192 | 2.6 | 0.0 | 0.00 | 0.00 | 0.00 | 30 | 1010.1 |
| 20260503212011 | 62 | 281 | 0.0 | 0.0 | 0.00 | 0.00 | 0.00 | 30 | 1010.1 |
| 20260503211511 | 62 | 328 | 1.7 | 0.0 | 0.00 | 0.00 | 0.00 | 29 | 1010.1 |
| 20260503211011 | 62 | 34 | 0.0 | 0.0 | 0.00 | 0.00 | 0.00 | 30 | 1010.1 |
| 20260503210011 | 62 | 197 | 0.0 | 0.0 | 0.00 | 0.00 | 0.00 | 29 | 1010.1 |
| 20260503205511 | 62 | 214 | 2.6 | 0.0 | 0.00 | 0.00 | 0.00 | 28 | 1010.4 |
| 20260503205011 | 62 | 298 | 2.6 | 0.0 | 0.00 | 0.00 | 0.00 | 29 | 1010.4 |
| 20260503204511 | 62 | 299 | 1.7 | 0.0 | 0.00 | 0.00 | 0.00 | 29 | 1010.4 |
| 20260503204011 | 62 | 228 | 3.5 | 0.0 | 0.00 | 0.00 | 0.00 | 29 | 1010.6 |
| 20260503203011 | 62 | 212 | 0.0 | 0.0 | 0.00 | 0.00 | 0.00 | 29 | 1010.6 |
| 20260503202512 | 62 | 108 | 0.0 | 0.0 | 0.00 | 0.00 | 0.00 | 29 | 1010.9 |
| 20260503202011 | 63 | 261 | 0.9 | 0.0 | 0.00 | 0.00 | 0.00 | 31 | 1010.9 |
| 20260503201513 | 62 | 279 | 0.0 | 0.0 | 0.00 | 0.00 | 0.00 | 30 | 1010.9 |
| 20260503201011 | 62 | 330 | 3.5 | 0.0 | 0.00 | 0.00 | 0.00 | 31 | 1011.0 |
| 20260503200511 | 62 | 281 | 0.0 | 0.0 | 0.00 | 0.00 | 0.00 | 29 | 1011.0 |
| 20260503200013 | 62 | 6 | 0.0 | 0.0 | 0.00 | 0.00 | 0.00 | 30 | 1011.0 |
| 20260503195511 | 62 | 291 | 2.6 | 0.0 | 0.00 | 0.00 | 0.00 | 34 | 1011.5 |
| 20260503195012 | 62 | 314 | 0.0 | 0.0 | 0.00 | 0.00 | 0.00 | 32 | 1011.5 |
| 20260503194511 | 61 | 288 | 0.0 | 0.0 | 0.00 | 0.00 | 0.00 | 30 | 1011.5 |
| 20260503194011 | 62 | 288 | 1.7 | 0.0 | 0.00 | 0.00 | 0.00 | 30 | 1011.6 |
| 20260503193511 | 62 | 307 | 0.0 | 0.0 | 0.00 | 0.00 | 0.00 | 32 | 1011.6 |
| 20260503193011 | 62 | 328 | 1.7 | 0.0 | 0.00 | 0.00 | 0.00 | 31 | 1011.6 |
| 20260503192511 | 62 | 352 | 0.0 | 0.0 | 0.00 | 0.00 | 0.00 | 30 | 1012.1 |
| 20260503192011 | 61 | 308 | 0.0 | 0.0 | 0.00 | 0.00 | 0.00 | 30 | 1012.1 |
| 20260503191511 | 62 | 187 | 0.0 | 0.0 | 0.00 | 0.00 | 0.00 | 30 | 1012.1 |
| 20260503191011 | 62 | 342 | 5.2 | 0.0 | 0.00 | 0.00 | 0.00 | 30 | 1012.2 |
| 20260503190511 | 62 | 97 | 0.0 | 0.0 | 0.00 | 0.00 | 0.00 | 31 | 1012.2 |
| 20260503190012 | 61 | 290 | 0.0 | 0.0 | 0.00 | 0.00 | 0.00 | 34 | 1012.2 |
| 20260503185511 | 60 | 306 | 0.0 | 0.0 | 0.00 | 0.00 | 0.00 | 35 | 1012.7 |
| 20260503185010 | 61 | 336 | 5.2 | 0.0 | 0.00 | 0.00 | 0.00 | 32 | 1012.7 |
| 20260503184511 | 61 | 1.7 | 0.0 | 0.00 | 0.00 | 0.00 | 30 | 1012.7 | |
| 20260503184012 | 60 | 204 | 0.0 | 0.0 | 0.00 | 0.00 | 0.00 | 35 | 1012.8 |
| 20260503183511 | 60 | 200 | 0.0 | 0.0 | 0.00 | 0.00 | 0.00 | 34 | 1012.8 |
| 20260503183011 | 60 | 337 | 1.7 | 0.0 | 0.00 | 0.00 | 0.00 | 31 | 1012.8 |
| 20260503182511 | 60 | 309 | 0.0 | 0.0 | 0.00 | 0.00 | 0.00 | 32 | 1013.0 |
| 20260503182011 | 60 | 256 | 2.6 | 0.0 | 0.00 | 0.00 | 0.00 | 34 | 1013.0 |
| 20260503181511 | 60 | 314 | 0.0 | 0.0 | 0.00 | 0.00 | 0.00 | 36 | 1013.0 |
| 20260503181011 | 59 | 259 | 0.0 | 0.0 | 0.00 | 0.00 | 0.00 | 35 | 1013.1 |
| 20260503180512 | 59 | 331 | 4.3 | 0.0 | 0.00 | 0.00 | 0.00 | 34 | 1013.1 |
| 20260503180011 | 59 | 323 | 1.7 | 0.0 | 0.00 | 0.00 | 0.00 | 38 | 1013.1 |
| 20260503175511 | 59 | 359 | 4.3 | 0.0 | 0.00 | 0.00 | 0.00 | 34 | 1013.4 |
| 20260503175011 | 59 | 241 | 0.0 | 0.0 | 0.00 | 0.00 | 0.00 | 36 | 1013.4 |
| 20260503174011 | 58 | 304 | 3.5 | 0.0 | 0.00 | 0.00 | 0.00 | 34 | 1013.4 |
| 20260503173511 | 58 | 280 | 0.0 | 0.0 | 0.00 | 0.00 | 0.00 | 37 | 1013.4 |
| 20260503172510 | 57 | 319 | 0.0 | 0.0 | 0.00 | 0.00 | 0.00 | 38 | 1013.7 |
| 20260503171511 | 58 | 36 | 1.7 | 0.0 | 0.00 | 0.00 | 0.00 | 33 | 1013.7 |
| 20260503170511 | 58 | 319 | 0.9 | 0.0 | 0.00 | 0.00 | 0.00 | 34 | 1014.0 |
| 20260503151010 | 53 | 328 | 0.0 | 0.0 | 0.00 | 0.00 | 0.00 | 43 | 1015.2 |
| 20260503150510 | 53 | 316 | 3.5 | 0.0 | 0.00 | 0.00 | 0.00 | 42 | 1015.2 |
| 20260503131011 | 45 | 214 | 0.0 | 0.0 | 0.00 | 0.00 | 0.00 | 68 | 1015.4 |
| 20260503130511 | 44 | 214 | 0.0 | 0.0 | 0.00 | 0.00 | 0.00 | 70 | 1015.4 |
| 20260503110511 | 48 | 319 | 0.0 | 0.0 | 0.00 | 0.00 | 0.00 | 50 | 1011.6 |
| 20260503090510 | 48 | 319 | 0.0 | 0.0 | 0.00 | 0.00 | 0.00 | 50 | 1011.6 |
| 20260503081510 | 48 | 319 | 0.0 | 0.0 | 0.00 | 0.00 | 0.00 | 50 | 1011.6 |
| 20260503081011 | 48 | 319 | 0.0 | 0.0 | 0.00 | 0.00 | 0.00 | 50 | 1011.6 |
| 20260503072010 | 48 | 319 | 0.0 | 0.0 | 0.00 | 0.00 | 0.00 | 50 | 1011.6 |
| 20260503071510 | 48 | 319 | 0.0 | 0.0 | 0.00 | 0.00 | 0.00 | 50 | 1011.6 |
| 20260503071010 | 48 | 319 | 0.0 | 0.0 | 0.00 | 0.00 | 0.00 | 50 | 1011.6 |
| 20260503070511 | 48 | 319 | 0.0 | 0.0 | 0.00 | 0.00 | 0.00 | 50 | 1011.6 |
| 20260503055011 | 48 | 319 | 0.0 | 0.0 | 0.00 | 0.00 | 0.00 | 50 | 1011.6 |
| 20260503054511 | 48 | 319 | 0.0 | 0.0 | 0.00 | 0.00 | 0.00 | 50 | 1011.6 |
| 20260503054011 | 48 | 319 | 0.0 | 0.0 | 0.00 | 0.00 | 0.00 | 50 | 1011.6 |
| 20260503053511 | 48 | 319 | 0.0 | 0.0 | 0.00 | 0.00 | 0.00 | 50 | 1011.6 |
| 20260503053011 | 48 | 319 | 0.0 | 0.0 | 0.00 | 0.00 | 0.00 | 50 | 1011.6 |
| 20260503052511 | 48 | 319 | 0.0 | 0.0 | 0.00 | 0.00 | 0.00 | 50 | 1011.6 |
| 20260503052011 | 48 | 319 | 0.0 | 0.0 | 0.00 | 0.00 | 0.00 | 50 | 1011.6 |
| 20260503051513 | 48 | 319 | 0.0 | 0.0 | 0.00 | 0.00 | 0.00 | 50 | 1011.6 |
| 20260503050511 | 48 | 319 | 0.0 | 0.0 | 0.00 | 0.00 | 0.00 | 50 | 1011.6 |
| 20260503050011 | 48 | 319 | 0.0 | 0.0 | 0.00 | 0.00 | 0.00 | 50 | 1011.6 |
| 20260503045511 | 48 | 319 | 0.0 | 0.0 | 0.00 | 0.00 | 0.00 | 50 | 1011.6 |
| 20260503045011 | 48 | 319 | 0.0 | 0.0 | 0.00 | 0.00 | 0.00 | 50 | 1011.6 |
| 20260503044511 | 48 | 319 | 0.0 | 0.0 | 0.00 | 0.00 | 0.00 | 50 | 1011.6 |
| 20260503044011 | 48 | 319 | 0.0 | 0.0 | 0.00 | 0.00 | 0.00 | 50 | 1011.6 |
| 20260503043511 | 48 | 319 | 0.0 | 0.0 | 0.00 | 0.00 | 0.00 | 50 | 1011.6 |
| 20260503043013 | 48 | 319 | 0.0 | 0.0 | 0.00 | 0.00 | 0.00 | 50 | 1011.6 |
| 20260503042511 | 48 | 319 | 0.0 | 0.0 | 0.00 | 0.00 | 0.00 | 50 | 1011.6 |
| 20260503042011 | 48 | 319 | 0.0 | 0.0 | 0.00 | 0.00 | 0.00 | 50 | 1011.6 |
| 20260503041511 | 48 | 319 | 0.0 | 0.0 | 0.00 | 0.00 | 0.00 | 50 | 1011.6 |
| 20260503041011 | 48 | 319 | 0.0 | 0.0 | 0.00 | 0.00 | 0.00 | 50 | 1011.6 |
| 20260503040511 | 48 | 319 | 0.0 | 0.0 | 0.00 | 0.00 | 0.00 | 50 | 1011.6 |
| 20260503034511 | 48 | 319 | 0.0 | 0.0 | 0.00 | 0.00 | 0.00 | 50 | 1011.6 |
| 20260503034011 | 48 | 319 | 0.0 | 0.0 | 0.00 | 0.00 | 0.00 | 50 | 1011.6 |
| 20260503033511 | 48 | 319 | 0.0 | 0.0 | 0.00 | 0.00 | 0.00 | 50 | 1011.6 |
| 20260503033011 | 48 | 319 | 0.0 | 0.0 | 0.00 | 0.00 | 0.00 | 50 | 1011.6 |
| 20260503032011 | 48 | 319 | 0.0 | 0.0 | 0.00 | 0.00 | 0.00 | 50 | 1011.6 |
| 20260503031513 | 48 | 319 | 0.0 | 0.0 | 0.00 | 0.00 | 0.00 | 50 | 1011.6 |
| 20260503031011 | 48 | 319 | 0.0 | 0.0 | 0.00 | 0.00 | 0.00 | 50 | 1011.6 |
| 20260503030511 | 48 | 319 | 0.0 | 0.0 | 0.00 | 0.00 | 0.00 | 50 | 1011.6 |
| 20260503025011 | 48 | 319 | 0.0 | 0.0 | 0.00 | 0.00 | 0.00 | 50 | 1011.6 |
| 20260503024511 | 48 | 319 | 0.0 | 0.0 | 0.00 | 0.00 | 0.00 | 50 | 1011.6 |
| 20260503024011 | 48 | 319 | 0.0 | 0.0 | 0.00 | 0.00 | 0.00 | 50 | 1011.6 |
| 20260503023512 | 48 | 319 | 0.0 | 0.0 | 0.00 | 0.00 | 0.00 | 50 | 1011.6 |
| 20260503023011 | 48 | 319 | 0.0 | 0.0 | 0.00 | 0.00 | 0.00 | 50 | 1011.6 |
| 20260503022511 | 48 | 319 | 0.0 | 0.0 | 0.00 | 0.00 | 0.00 | 50 | 1011.6 |
| 20260503022011 | 48 | 319 | 0.0 | 0.0 | 0.00 | 0.00 | 0.00 | 50 | 1011.6 |